Content
SEND FEEDBACK

United States of America Flag

MOORE, MONTANA


Home > North America > United States > Montana
Elevation: 4108 feet     Latitude: 47 03N     Longitude: 109 27W

WEATHER
 
SELECT A DAY
Number of Records: 281,103;   Date Range: 1/1/95 - 3/22/16
 
SHARE

PRINT THIS DATA

[ ← Previous Day ]
WEATHER ALMANAC - JANUARY 30, 2013
[ Next Day → ]
[ °C ]   °F
Weather ElementAverageHighLow
Temperature17.3 °F30 °F (10:54 am)3.9 °F (11:54 pm)
Dewpoint13.1 °F21.9 °F (10:54 am) (7:00 pm)
Humidity83.9 %93 % (1:24 pm)64 % (11:54 am)
Barometer29.96 in30.19 in (11:54 pm)29.78 in (10:41 am)
Wind Speed9.1 mph17.3 mph (8:46 pm)
Weather ElementAverage
Visibility3.3 mi
Wind DirectionWSW (257.2 °)

Weather ElementTotal
Precipitation0.18 in
Heating Degree Days48.1 (Base 65)
Averaged from 54 records on January 30, 2013
WEATHER CONDITIONS BREAKOUT
WIND DIRECTION BREAKOUT
WEATHER BY HOUR - JANUARY 30, 2013
[ °C ]   °F
Local TimeTemperatureDewpointHumidityBarometerVisibilityWind DirectionWind SpeedGust SpeedPrecipitationEventsConditions
1:54 AM6.1 °F0.0 °F76 %30.04 in10.0 miESE (110°)6.9 mphOvercast
2:54 AM9.0 °F3.0 °F77 %29.99 in10.0 miCalmOvercast
3:54 AM12.9 °F7.0 °F77 %29.97 in10.0 miCalmOvercast
4:54 AM16.0 °F8.1 °F71 %29.96 in10.0 miCalmOvercast
5:54 AM23.0 °F12.9 °F65 %29.95 in10.0 miCalmOvercast
6:54 AM26.1 °F17.1 °F69 %29.94 in10.0 miWest (280°)4.6 mph0.00 inOvercast
7:54 AM26.1 °F18.0 °F71 %29.96 in10.0 miWest (280°)3.5 mphOvercast
8:54 AM27.0 °F18.0 °F69 %29.96 in10.0 miWest (280°)6.9 mphOvercast
9:54 AM28.9 °F19.0 °F67 %29.96 in10.0 miNW (320°)5.8 mphOvercast
10:28 AM28.4 °F19.4 °F69 %29.79 in5.0 miWest (260°)9.2 mph0.00 inSnowLight Snow
10:41 AM28.4 °F21.2 °F74 %29.78 in9.0 miWest (260°)11.5 mph0.00 inOvercast
10:54 AM30.0 °F21.9 °F72 %29.96 in10.0 miWest (260°)11.5 mph0.00 inOvercast
11:54 AM28.9 °F18.0 °F64 %29.95 in10.0 miNNW (330°)8.1 mphOvercast
12:24 PM26.6 °F21.2 °F80 %29.80 in3.0 miVariable3.5 mph0.00 inSnowLight Snow
12:34 PM26.6 °F21.2 °F80 %29.80 in1.8 miNW (320°)8.1 mph0.00 inSnowLight Snow
12:52 PM24.8 °F19.4 °F80 %29.81 in1.2 miNorth (350°)8.1 mph0.00 inSnowLight Snow
12:54 PM24.1 °F19.9 °F84 %29.99 in1.5 miNNW (340°)6.9 mph0.00 inSnowLight Snow
1:11 PM24.8 °F19.4 °F80 %29.81 in1.2 miNW (310°)6.9 mph0.00 inSnowLight Snow
1:24 PM21.2 °F19.4 °F93 %29.82 in0.8 miWNW (290°)9.2 mph0.01 inSnowLight Snow
1:27 PM21.2 °F19.4 °F93 %29.82 in1.0 miWNW (290°)9.2 mph0.01 inSnowLight Snow
1:54 PM21.9 °F19.9 °F92 %30.00 in1.2 miWNW (300°)8.1 mph0.01 inSnowLight Snow
2:09 PM21.2 °F19.4 °F93 %29.83 in0.8 miWNW (290°)8.1 mph0.00 inSnowLight Snow
2:36 PM21.2 °F17.6 °F86 %29.86 in1.2 miWest (270°)12.7 mph0.00 inSnowLight Snow
2:54 PM19.9 °F18.0 °F92 %30.04 in0.8 miWest (270°)13.8 mph0.01 inSnowLight Snow
3:04 PM19.4 °F17.6 °F93 %29.87 in1.5 miWest (260°)11.5 mph0.00 inSnowLight Snow
3:23 PM19.4 °F17.6 °F93 %29.88 in0.5 miWest (270°)10.4 mph0.00 inFog-SnowSnow
3:54 PM19.9 °F18.0 °F92 %30.05 in0.8 miWNW (300°)4.6 mph0.00 inSnowLight Snow
4:04 PM19.4 °F17.6 °F93 %29.90 in1.2 miNW (310°)5.8 mph0.01 inSnowLight Snow
4:22 PM19.4 °F17.6 °F93 %29.91 in0.8 miWNW (290°)8.1 mph0.01 inSnowLight Snow
4:45 PM19.4 °F17.6 °F93 %29.91 in1.0 miWNW (290°)6.9 mph0.01 inSnowLight Snow
4:54 PM19.0 °F17.1 °F92 %30.06 in0.5 miWNW (290°)5.8 mph0.02 inFog-SnowSnow
5:01 PM19.4 °F15.8 °F86 %29.91 in0.5 miWNW (300°)6.9 mph0.00 inFog-SnowSnow
5:42 PM17.6 °F15.8 °F93 %29.91 in1.2 miWNW (300°)8.1 mph0.01 inSnowLight Snow
5:50 PM17.6 °F15.8 °F93 %29.92 in1.8 miNW (310°)10.4 mph0.01 inSnowLight Snow
5:54 PM17.1 °F15.1 °F92 %30.07 in1.2 miWNW (300°)10.4 mph0.01 inSnowLight Snow
6:26 PM15.8 °F12.2 °F86 %29.93 in2.5 miWNW (290°)9.2 mph0.00 inSnowLight Snow
6:51 PM15.8 °F12.2 °F86 %29.94 in1.2 miWest (270°)9.2 mph0.01 inSnowLight Snow
6:54 PM14.0 °F12.0 °F92 %30.09 in1.2 miWest (280°)9.2 mph0.01 inSnowLight Snow
7:12 PM14.0 °F10.4 °F86 %29.95 in1.0 miWNW (300°)5.8 mph0.00 inSnowLight Snow
7:20 PM12.2 °F10.4 °F92 %29.95 in1.8 miWest (280°)8.1 mph0.00 inSnowLight Snow
7:54 PM10.9 °F8.1 °F88 %30.12 in0.8 miWest (280°)13.8 mph0.00 inSnowLight Snow
8:10 PM10.4 °F6.8 °F85 %29.97 in1.0 miWest (280°)15.0 mph0.00 inSnowLight Snow
8:46 PM10.4 °F6.8 °F85 %29.98 in1.8 miWest (270°)17.3 mph0.00 inSnowLight Snow
8:54 PM10.0 °F6.1 °F84 %30.14 in2.0 miWest (270°)17.3 mph0.00 inSnowLight Snow
9:03 PM8.6 °F6.8 °F92 %29.98 in1.8 miWest (270°)17.3 mph0.00 inSnowLight Snow
9:22 PM8.6 °F5.0 °F85 %29.99 in2.0 miWest (270°)15.0 mph0.00 inSnowLight Snow
9:34 PM8.6 °F5.0 °F85 %30.00 in1.5 miWest (270°)17.3 mph0.00 inSnowLight Snow
9:54 PM8.1 °F5.0 °F87 %30.15 in1.2 miWest (270°)11.5 mph0.00 inSnowLight Snow
10:02 PM8.6 °F5.0 °F85 %29.99 in1.0 miWest (280°)11.5 mph0.00 inSnowLight Snow
10:34 PM6.8 °F3.2 °F85 %30.02 in1.8 miWest (280°)11.5 mph0.01 inSnowLight Snow
10:44 PM6.8 °F1.4 °F79 %30.03 in0.8 miWest (280°)15.0 mph0.01 inSnowLight Snow
10:54 PM5.0 °F1.9 °F87 %30.18 in0.8 miWest (270°)15.0 mph0.01 inSnowLight Snow
11:08 PM5.0 °F1.4 °F85 %30.03 in1.2 miWest (280°)9.2 mph0.00 inSnowLight Snow
11:54 PM3.9 °F1.0 °F88 %30.19 in0.8 miWest (270°)10.4 mph0.01 inSnowLight Snow
Hourly data recorded from KLWT, located miles away from Moore, Montana




STORIES FROM OUR PARTNERS